EW0609 Weather Reports


time (UTC)temp
C
wind
direction
speed
KPH
gust
KPH
rain 1hr
cm
rain 24hr
cm
rain mn
cm
humidity
%
barometer
mb
20260905071307 26 107 9.7 19.3 0.00 0.00 0.00 59 1016.3
20260905070806 26 165 8.0 19.3 0.00 0.00 0.00 59 1016.3
20260905070306 26 171 8.0 17.7 0.00 0.00 0.00 58 1016.3
20260905065806 26 213 9.7 17.7 0.00 0.00 0.00 58 1016.3
20260905065307 26 240 8.0 19.3 0.00 0.00 0.00 58 1016.3
20260905064806 26 214 12.9 19.3 0.00 0.00 0.00 58 1016.3
20260905064629 26 204 6.4 19.3 0.00 0.00 0.00 58 1016.2
20260905063806 26 162 8.0 19.3 0.00 0.00 0.00 58 1016.3
20260905063634 26 178 9.7 19.3 0.00 0.00 0.00 57 1016.4
20260905062808 26 228 8.0 19.3 0.00 0.00 0.00 57 1016.3
20260905062309 26 147 8.0 16.1 0.00 0.00 0.00 57 1016.3
20260905061807 27 203 6.4 16.1 0.00 0.00 0.00 57 1016.3
20260905061306 27 169 8.0 19.3 0.00 0.00 0.00 57 1016.3
20260905060808 27 171 8.0 20.9 0.00 0.00 0.00 56 1016.3
20260905060307 27 193 9.7 20.9 0.00 0.00 0.00 56 1016.2
20260905060006 27 79 6.4 20.9 0.00 0.00 0.00 56 1016.2
20260905055918 27 189 4.8 20.9 0.00 0.00 0.00 56 1016.2
20260905054807 27 137 11.3 20.9 0.00 0.00 0.00 56 1016.2
20260905054305 27 183 8.0 16.1 0.00 0.00 0.00 56 1016.2
20260905053806 27 145 8.0 17.7 0.00 0.00 0.00 56 1016.2
20260905053307 27 134 6.4 17.7 0.00 0.00 0.00 55 1016.1
20260905052807 27 140 8.0 17.7 0.00 0.00 0.00 55 1015.9
20260905052306 27 162 8.0 17.7 0.00 0.00 0.00 55 1015.9
20260905051806 27 155 6.4 19.3 0.00 0.00 0.00 54 1015.9
20260905051307 27 173 6.4 19.3 0.00 0.00 0.00 54 1016.2
20260905051144 27 190 6.4 14.5 0.00 0.00 0.00 54 1016.2
20260905051010 27 221 4.8 17.7 0.00 0.00 0.00 53 1016.3
20260905045806 27 193 6.4 19.3 0.00 0.00 0.00 53 1016.4
20260905045307 27 175 11.3 19.3 0.00 0.00 0.00 53 1016.4
20260905044806 28 178 11.3 19.3 0.00 0.00 0.00 52 1016.6
20260905044306 28 196 4.8 14.5 0.00 0.00 0.00 51 1016.4
20260905043806 28 185 6.4 14.5 0.00 0.00 0.00 51 1016.3
20260905043306 28 207 4.8 14.5 0.00 0.00 0.00 50 1016.4
20260905043143 28 173 3.2 16.1 0.00 0.00 0.00 50 1016.4
20260905042307 28 161 4.8 17.7 0.00 0.00 0.00 49 1016.4
20260905041807 28 188 6.4 17.7 0.00 0.00 0.00 48 1016.4
20260905041307 28 133 6.4 16.1 0.00 0.00 0.00 47 1016.4
20260905041131 28 183 4.8 16.1 0.00 0.00 0.00 47 1016.2
20260905040519 29 171 8.0 14.5 0.00 0.00 0.00 45 1016.2
20260905040423 29 199 8.0 14.5 0.00 0.00 0.00 45 1016.2
20260905035308 29 224 6.4 14.5 0.00 0.00 0.00 44 1016.3
20260905034806 30 220 4.8 14.5 0.00 0.00 0.00 43 1016.2
20260905034306 30 137 4.8 14.5 0.00 0.00 0.00 42 1016.1
20260905033806 30 94 4.8 19.3 0.00 0.00 0.00 41 1015.9
20260905033307 30 173 4.8 19.3 0.00 0.00 0.00 41 1015.9
20260905032806 30 124 8.0 16.1 0.00 0.00 0.00 40 1015.8
20260905032306 30 125 6.4 9.7 0.00 0.00 0.00 39 1015.7
20260905031808 31 102 0.0 11.3 0.00 0.00 0.00 39 1015.7
20260905031306 31 152 6.4 11.3 0.00 0.00 0.00 38 1015.7
20260905030806 31 104 4.8 8.0 0.00 0.00 0.00 37 1015.5
20260905030308 31 113 3.2 8.0 0.00 0.00 0.00 37 1015.4
20260905025809 31 133 4.8 8.0 0.00 0.00 0.00 37 1015.3
20260905025633 32 141 3.2 8.0 0.00 0.00 0.00 36 1015.2
20260905025137 32 79 3.2 11.3 0.00 0.00 0.00 36 1015.1
20260905024306 32 216 4.8 11.3 0.00 0.00 0.00 35 1015.1
20260905023805 32 116 4.8 11.3 0.00 0.00 0.00 36 1014.9
20260905023305 32 189 1.6 9.7 0.00 0.00 0.00 35 1014.9
20260905022805 32 190 3.2 11.3 0.00 0.00 0.00 36 1014.8
20260905022306 31 319 6.4 11.3 0.00 0.00 0.00 37 1014.7
20260905021810 31 255 1.6 11.3 0.00 0.00 0.00 38 1014.8
20260905021306 31 0 0.0 11.3 0.00 0.00 0.00 38 1014.5
20260905020805 31 272 3.2 9.7 0.00 0.00 0.00 38 1014.5
20260905020310 31 283 4.8 8.0 0.00 0.00 0.00 40 1014.5
20260905020146 31 243 3.2 9.7 0.00 0.00 0.00 39 1014.4
20260905015309 31 199 3.2 14.5 0.00 0.00 0.00 38 1014.2
20260905015134 31 100 4.8 19.3 0.00 0.00 0.00 38 1014.0
20260905014306 31 103 6.4 19.3 0.00 0.00 0.00 38 1014.0
20260905013805 31 99 9.7 19.3 0.00 0.00 0.00 38 1013.9
20260905013309 32 76 8.0 17.7 0.00 0.00 0.00 38 1013.8
20260905012805 32 111 6.4 17.7 0.00 0.00 0.00 38 1013.8
20260905012306 32 114 8.0 17.7 0.00 0.00 0.00 38 1013.8
20260905011806 32 111 9.7 20.9 0.00 0.00 0.00 38 1013.8
20260905011307 32 120 9.7 20.9 0.00 0.00 0.00 38 1013.7
20260905011027 32 128 8.0 20.9 0.00 0.00 0.00 38 1013.7
20260905010808 32 128 8.0 20.9 0.00 0.00 0.00 38 1013.7
20260905010308 32 157 11.3 24.1 0.00 0.00 0.00 38 1013.6
20260905005806 32 110 8.0 24.1 0.00 0.00 0.00 38 1013.6
20260905005307 32 92 11.3 19.3 0.00 0.00 0.00 38 1013.7
20260905004806 32 61 9.7 19.3 0.00 0.00 0.00 38 1013.6
20260905004306 32 76 9.7 19.3 0.00 0.00 0.00 38 1013.5
20260905003806 33 102 11.3 19.3 0.00 0.00 0.00 37 1013.5
20260905003306 33 107 8.0 19.3 0.00 0.00 0.00 36 1013.4
20260905002806 33 113 11.3 19.3 0.00 0.00 0.00 36 1013.5
20260905002306 33 113 6.4 19.3 0.00 0.00 0.00 35 1013.4
20260905001806 33 79 8.0 19.3 0.00 0.00 0.00 35 1013.4
20260905001309 33 144 9.7 20.9 0.00 0.00 0.00 34 1013.4
20260905000806 34 100 12.9 24.1 0.00 0.00 0.00 33 1013.3
20260905000307 34 107 11.3 25.7 0.00 0.00 0.00 33 1013.3
20260904235806 34 103 14.5 25.7 0.00 0.00 0.00 31 1013.3
20260904235306 35 89 9.7 24.1 0.00 0.00 0.00 30 1013.3
20260904234806 35 117 12.9 22.5 0.00 0.00 0.00 28 1013.2
20260904234304 36 128 9.7 22.5 0.00 0.00 0.00 27 1013.0
20260904233806 36 110 8.0 20.9 0.00 0.00 0.00 27 1012.9
20260904233312 36 219 9.7 19.3 0.00 0.00 0.00 27 1013.0
20260904232806 36 123 8.0 27.4 0.00 0.00 0.00 27 1012.8
20260904232307 36 116 16.1 27.4 0.00 0.00 0.00 27 1012.8
20260904231806 36 110 8.0 24.1 0.00 0.00 0.00 27 1012.8
20260904231306 36 113 9.7 24.1 0.00 0.00 0.00 27 1012.8
20260904231113 36 103 8.0 19.3 0.00 0.00 0.00 27 1012.7
20260904230644 36 93 6.4 20.9 0.00 0.00 0.00 27 1012.7
20260904225809 36 90 11.3 20.9 0.00 0.00 0.00 27 1012.8
20260904225306 36 106 9.7 19.3 0.00 0.00 0.00 26 1012.8
20260904225149 36 158 8.0 20.9 0.00 0.00 0.00 27 1012.8
20260904224305 36 190 9.7 25.7 0.00 0.00 0.00 27 1012.9
20260904223805 36 103 12.9 25.7 0.00 0.00 0.00 26 1012.9
20260904223305 36 133 9.7 24.1 0.00 0.00 0.00 27 1012.9
20260904223118 36 154 8.0 20.9 0.00 0.00 0.00 27 1012.9
20260904222647 36 117 9.7 20.9 0.00 0.00 0.00 27 1013.2
20260904222150 36 123 9.7 25.7 0.00 0.00 0.00 27 1013.2
20260904221649 36 127 9.7 25.7 0.00 0.00 0.00 28 1013.2
20260904220804 36 124 12.9 24.1 0.00 0.00 0.00 27 1013.2
20260904220308 37 133 9.7 25.7 0.00 0.00 0.00 27 1013.2
20260904215806 37 131 11.3 25.7 0.00 0.00 0.00 28 1013.2
20260904215649 37 164 12.9 24.1 0.00 0.00 0.00 28 1013.2
20260904214805 37 182 11.3 29.0 0.00 0.00 0.00 28 1013.2
20260904214646 37 173 14.5 29.0 0.00 0.00 0.00 28 1013.2
20260904213806 37 188 12.9 27.4 0.00 0.00 0.00 28 1013.3
20260904213540 37 73 9.7 27.4 0.00 0.00 0.00 28 1013.2
20260904212805 37 145 11.3 27.4 0.00 0.00 0.00 27 1013.2
20260904212307 38 103 11.3 24.1 0.00 0.00 0.00 27 1013.3
20260904212135 37 111 11.3 24.1 0.00 0.00 0.00 28 1013.2
20260904211640 37 79 9.7 24.1 0.00 0.00 0.00 27 1013.4
20260904210805 37 176 14.5 20.9 0.00 0.00 0.00 26 1013.4
20260904210305 38 179 8.0 19.3 0.00 0.00 0.00 26 1013.4
20260904205806 38 155 8.0 19.3 0.00 0.00 0.00 26 1013.4
20260904205309 38 149 9.7 22.5 0.00 0.00 0.00 27 1013.5
20260904205054 38 117 9.7 22.5 0.00 0.00 0.00 26 1013.5
20260904204407 37 234 6.4 19.3 0.00 0.00 0.00 27 1013.5
20260904203305 37 234 9.7 20.9 0.00 0.00 0.00 27 1013.6
20260904203117 37 175 11.3 17.7 0.00 0.00 0.00 28 1013.8
20260904202307 36 121 8.0 14.5 0.00 0.00 0.00 30 1013.8
20260904201806 37 137 6.4 11.3 0.00 0.00 0.00 27 1013.9
20260904201305 38 117 4.8 14.5 0.00 0.00 0.00 28 1014.0
20260904200806 37 142 8.0 24.1 0.00 0.00 0.00 27 1014.0
20260904200305 38 127 8.0 24.1 0.00 0.00 0.00 28 1014.2
20260904195805 37 180 8.0 19.3 0.00 0.00 0.00 29 1014.0
20260904195306 37 142 4.8 17.7 0.00 0.00 0.00 30 1014.4
20260904194807 36 244 9.7 17.7 0.00 0.00 0.00 30 1014.4
20260904194305 37 245 6.4 11.3 0.00 0.00 0.00 29 1014.4
20260904194036 37 244 3.2 9.7 0.00 0.00 0.00 29 1014.6
20260904193934 37 138 4.8 11.3 0.00 0.00 0.00 28 1014.4
20260904192805 37 114 4.8 20.9 0.00 0.00 0.00 28 1014.5
20260904192542 37 219 6.4 16.1 0.00 0.00 0.00 28 1014.6
20260904192432 37 188 6.4 20.9 0.00 0.00 0.00 28 1014.6
20260904191307 37 171 9.7 16.1 0.00 0.00 0.00 29 1014.7
20260904191211 37 97 6.4 16.1 0.00 0.00 0.00 29 1014.7
20260904190304 37 172 6.4 17.7 0.00 0.00 0.00 31 1014.9
20260904185807 37 131 8.0 17.7 0.00 0.00 0.00 29 1014.9
20260904185310 37 272 3.2 9.7 0.00 0.00 0.00 30 1014.9
20260904184806 36 250 3.2 9.7 0.00 0.00 0.00 29 1015.1
20260904184306 36 175 4.8 11.3 0.00 0.00 0.00 31 1015.1
20260904183806 36 188 6.4 16.1 0.00 0.00 0.00 30 1015.3
20260904183305 37 186 4.8 16.1 0.00 0.00 0.00 31 1015.3
20260904182806 36 221 3.2 9.7 0.00 0.00 0.00 30 1015.4
20260904182306 37 220 4.8 14.5 0.00 0.00 0.00 31 1015.4
20260904181805 36 254 8.0 14.5 0.00 0.00 0.00 30 1015.4
20260904181306 36 185 4.8 16.1 0.00 0.00 0.00 31 1015.4
20260904181152 36 243 3.2 16.1 0.00 0.00 0.00 32 1015.5
20260904180306 36 219 4.8 11.3 0.00 0.00 0.00 33 1015.6
20260904175805 36 259 4.8 9.7 0.00 0.00 0.00 32 1015.5
20260904175311 36 238 6.4 9.7 0.00 0.00 0.00 33 1015.6
20260904174807 36 279 3.2 14.5 0.00 0.00 0.00 31 1015.8
20260904174305 36 193 4.8 14.5 0.00 0.00 0.00 33 1015.7
20260904173810 35 276 4.8 19.3 0.00 0.00 0.00 32 1015.8
20260904173306 35 247 11.3 19.3 0.00 0.00 0.00 33 1015.9
20260904172806 35 207 4.8 16.1 0.00 0.00 0.00 32 1015.9
20260904172306 35 240 6.4 14.5 0.00 0.00 0.00 36 1016.1
20260904172014 35 233 3.2 16.1 0.00 0.00 0.00 35 1015.9
20260904171925 35 193 3.2 11.3 0.00 0.00 0.00 34 1015.9
20260904171143 35 210 8.0 17.7 0.00 0.00 0.00 34 1016.1
20260904170537 35 241 6.4 14.5 0.00 0.00 0.00 35 1015.9
20260904170431 34 240 9.7 17.7 0.00 0.00 0.00 35 1016.1
20260904165306 35 231 3.2 14.5 0.00 0.00 0.00 37 1015.9
20260904164810 34 147 6.4 14.5 0.00 0.00 0.00 36 1015.9
20260904164639 34 259 8.0 16.1 0.00 0.00 0.00 39 1016.1
20260904163805 34 166 8.0 16.1 0.00 0.00 0.00 37 1015.9
20260904163646 33 197 4.8 9.7 0.00 0.00 0.00 38 1016.1
20260904162805 33 231 6.4 9.7 0.00 0.00 0.00 41 1015.9
20260904162307 33 257 3.2 11.3 0.00 0.00 0.00 39 1016.1
20260904161804 33 250 8.0 11.3 0.00 0.00 0.00 43 1016.1
20260904161305 32 244 6.4 11.3 0.00 0.00 0.00 44 1016.1
20260904160805 32 202 8.0 11.3 0.00 0.00 0.00 41 1015.9
20260904160656 32 248 1.6 8.0 0.00 0.00 0.00 43 1015.9
20260904155805 32 189 3.2 11.3 0.00 0.00 0.00 43 1015.8
20260904155307 31 209 4.8 11.3 0.00 0.00 0.00 44 1015.8
20260904154805 31 0 8.0 9.7 0.00 0.00 0.00 46 1015.8
20260904154308 31 0 4.8 9.7 0.00 0.00 0.00 46 1015.8
20260904153806 31 0 3.2 9.7 0.00 0.00 0.00 45 1015.7
20260904153305 30 0 3.2 11.3 0.00 0.00 0.00 48 1015.7
20260904152806 30 254 6.4 11.3 0.00 0.00 0.00 48 1015.7
20260904152616 30 0 1.6 11.3 0.00 0.00 0.00 48 1015.7
20260904151805 29 0 4.8 8.0 0.00 0.00 0.00 49 1015.8
20260904151305 28 0 0.0 8.0 0.00 0.00 0.00 52 1015.8
20260904151216 28 244 1.6 8.0 0.00 0.00 0.00 53 1015.7
20260904150307 27 231 0.0 6.4 0.00 0.00 0.00 54 1015.8
20260904145805 27 149 0.0 14.5 0.00 0.00 0.00 54 1015.7
20260904145306 27 172 4.8 14.5 0.00 0.00 0.00 56 1015.7
20260904144804 26 173 3.2 11.3 0.00 0.00 0.00 55 1015.8
20260904144304 26 128 4.8 9.7 0.00 0.00 0.00 57 1015.7
20260904143807 26 131 4.8 8.0 0.00 0.00 0.00 57 1015.8
20260904143643 26 164 4.8 8.0 0.00 0.00 0.00 58 1015.7
20260904143156 26 103 4.8 8.0 0.00 0.00 0.00 59 1015.7
20260904142307 25 157 4.8 8.0 0.00 0.00 0.00 61 1015.8
20260904141804 25 94 3.2 6.4 0.00 0.00 0.00 62 1015.6
20260904141304 24 151 3.2 4.8 0.00 0.00 0.00 63 1015.6
20260904141154 24 145 1.6 6.4 0.00 0.00 0.00 64 1015.7
20260904140305 24 102 1.6 6.4 0.00 0.00 0.00 65 1015.7
20260904135807 23 102 4.8 6.4 0.00 0.00 0.00 66 1015.7
20260904135306 23 97 0.0 8.0 0.00 0.00 0.00 68 1015.8
20260904134805 23 102 4.8 8.0 0.00 0.00 0.00 69 1015.7
20260904134304 22 124 3.2 8.0 0.00 0.00 0.00 70 1015.8
20260904133804 22 157 3.2 4.8 0.00 0.00 0.00 71 1015.7
20260904133305 22 127 0.0 8.0 0.00 0.00 0.00 72 1015.7
20260904132806 21 97 4.8 8.0 0.00 0.00 0.00 72 1015.6
20260904132307 21 104 3.2 6.4 0.00 0.00 0.00 73 1015.6
20260904132037 21 148 3.2 6.4 0.00 0.00 0.00 73 1015.6
20260904131807 21 148 3.2 6.4 0.00 0.00 0.00 73 1015.6
20260904131306 21 120 4.8 6.4 0.00 0.00 0.00 73 1015.5
20260904131025 21 99 0.0 0.0 0.00 0.00 0.00 73 1015.4
20260904130809 21 99 0.0 0.0 0.00 0.00 0.00 73 1015.4
20260904130305 21 151 0.0 1.6 0.00 0.00 0.00 73 1015.4
20260904125804 21 161 0.0 4.8 0.00 0.00 0.00 73 1015.3
20260904125305 21 176 1.6 6.4 0.00 0.00 0.00 72 1015.3
20260904124804 21 171 3.2 6.4 0.00 0.00 0.00 72 1015.3
20260904124334 21 173 3.2 9.7 0.00 0.00 0.00 71 1015.3
20260904123926 21 144 0.0 9.7 0.00 0.00 0.00 71 1015.2
20260904123024 22 169 3.2 9.7 0.00 0.00 0.00 70 1015.1
20260904122925 21 144 3.2 6.4 0.00 0.00 0.00 70 1015.1
20260904121805 22 159 1.6 9.7 0.00 0.00 0.00 70 1014.9
20260904121304 22 207 6.4 9.7 0.00 0.00 0.00 70 1015.1
20260904121140 22 171 4.8 9.7 0.00 0.00 0.00 70 1014.9
20260904120658 22 196 4.8 14.5 0.00 0.00 0.00 70 1014.8
20260904120139 22 196 4.8 14.5 0.00 0.00 0.00 70 1014.8
20260904115306 22 165 3.2 11.3 0.00 0.00 0.00 70 1014.9
20260904114806 22 228 4.8 9.7 0.00 0.00 0.00 70 1014.8
20260904114641 22 124 3.2 8.0 0.00 0.00 0.00 70 1015.1
20260904114153 22 173 4.8 9.7 0.00 0.00 0.00 71 1014.9
20260904113304 22 204 4.8 9.7 0.00 0.00 0.00 71 1014.9
20260904112806 22 180 6.4 11.3 0.00 0.00 0.00 71 1014.9
20260904112306 22 173 4.8 11.3 0.00 0.00 0.00 71 1014.8
20260904111806 22 176 3.2 6.4 0.00 0.00 0.00 71 1014.7
20260904111644 22 178 3.2 8.0 0.00 0.00 0.00 70 1014.7
20260904110805 22 185 1.6 8.0 0.00 0.00 0.00 70 1014.6
20260904110305 22 147 1.6 8.0 0.00 0.00 0.00 70 1014.5
20260904105804 22 147 4.8 8.0 0.00 0.00 0.00 70 1014.5
20260904105306 22 158 3.2 8.0 0.00 0.00 0.00 70 1014.5
20260904104805 22 144 4.8 9.7 0.00 0.00 0.00 70 1014.6
20260904104305 22 141 3.2 9.7 0.00 0.00 0.00 70 1014.5
20260904103804 22 131 3.2 9.7 0.00 0.00 0.00 70 1014.5
20260904103305 22 135 4.8 9.7 0.00 0.00 0.00 70 1014.5
20260904102804 22 87 3.2 8.0 0.00 0.00 0.00 70 1014.5
20260904102306 22 154 3.2 8.0 0.00 0.00 0.00 70 1014.5
20260904101805 22 118 4.8 9.7 0.00 0.00 0.00 70 1014.4
20260904101531 22 137 4.8 9.7 0.00 0.00 0.00 70 1014.3
20260904100805 22 118 4.8 9.7 0.00 0.00 0.00 71 1014.4
20260904100640 22 155 3.2 9.7 0.00 0.00 0.00 70 1014.2
20260904095804 22 110 4.8 9.7 0.00 0.00 0.00 71 1014.2
20260904095306 22 113 3.2 9.7 0.00 0.00 0.00 70 1014.2
20260904094803 22 92 6.4 9.7 0.00 0.00 0.00 70 1014.0
20260904094305 22 124 4.8 9.7 0.00 0.00 0.00 69 1014.2
20260904093804 22 127 6.4 8.0 0.00 0.00 0.00 69 1014.2
20260904093305 22 123 4.8 8.0 0.00 0.00 0.00 70 1014.0
20260904092804 22 110 4.8 9.7 0.00 0.00 0.00 70 1014.2
20260904092306 22 107 4.8 9.7 0.00 0.00 0.00 70 1014.2
20260904091808 21 123 3.2 8.0 0.00 0.00 0.00 70 1014.2
20260904091305 22 138 3.2 11.3 0.00 0.00 0.00 69 1014.2
20260904090804 22 116 1.6 11.3 0.00 0.00 0.00 68 1014.2
20260904090306 22 128 3.2 11.3 0.00 0.00 0.00 68 1014.2
20260904090135 22 134 4.8 9.7 0.00 0.00 0.00 67 1014.0
20260904085306 22 121 3.2 14.5 0.00 0.00 0.00 67 1014.0
20260904084806 22 142 3.2 14.5 0.00 0.00 0.00 67 1014.2
20260904084304 22 162 3.2 9.7 0.00 0.00 0.00 66 1014.2
20260904083804 22 155 3.2 9.7 0.00 0.00 0.00 66 1014.2
20260904083633 22 175 3.2 9.7 0.00 0.00 0.00 66 1014.3
20260904082804 22 107 4.8 9.7 0.00 0.00 0.00 67 1014.3
20260904082640 22 162 3.2 9.7 0.00 0.00 0.00 67 1014.3
20260904082141 22 148 4.8 8.0 0.00 0.00 0.00 67 1014.3
20260904081632 22 125 3.2 8.0 0.00 0.00 0.00 66 1014.3
20260904080804 22 157 4.8 8.0 0.00 0.00 0.00 66 1014.2
20260904080306 23 130 3.2 8.0 0.00 0.00 0.00 66 1014.3
20260904075807 22 127 3.2 9.7 0.00 0.00 0.00 66 1014.3
20260904075307 22 145 4.8 11.3 0.00 0.00 0.00 66 1014.2
20260904074804 22 140 4.8 11.3 0.00 0.00 0.00 66 1014.3
20260904074305 22 162 3.2 11.3 0.00 0.00 0.00 66 1014.3
20260904073805 22 114 6.4 11.3 0.00 0.00 0.00 66 1014.3
20260904073304 23 117 4.8 11.3 0.00 0.00 0.00 65 1014.2
20260904072804 23 89 4.8 14.5 0.00 0.00 0.00 65 1014.3
20260904072306 23 147 4.8 14.5 0.00 0.00 0.00 65 1014.4
20260904071804 23 148 3.2 14.5 0.00 0.00 0.00 65 1014.3